| time (UTC) | temp F | wind direction | speed MPH | gust MPH | rain 1hr in | rain 24hr in | rain mn in | humidity % | barometer mb |
| 20260504000045 | 73 | 150 | 2.0 | 10.0 | 0.00 | 0.00 | 0.00 | 59 | 1017.0 |
| 20260503234542 | 73 | 247 | 3.0 | 10.0 | 0.00 | 0.00 | 0.00 | 58 | 1017.1 |
| 20260503233041 | 73 | 198 | 5.0 | 10.0 | 0.00 | 0.00 | 0.00 | 55 | 1017.2 |
| 20260503231540 | 74 | 164 | 3.0 | 10.0 | 0.00 | 0.00 | 0.00 | 55 | 1017.2 |
| 20260503230037 | 74 | 224 | 4.0 | 11.0 | 0.00 | 0.00 | 0.00 | 54 | 1017.2 |
| 20260503224538 | 74 | 323 | 6.0 | 11.0 | 0.00 | 0.00 | 0.00 | 52 | 1017.2 |
| 20260503223035 | 75 | 177 | 4.0 | 13.0 | 0.00 | 0.00 | 0.00 | 49 | 1017.2 |
| 20260503221540 | 75 | 331 | 5.0 | 10.0 | 0.00 | 0.00 | 0.00 | 49 | 1017.2 |
| 20260503220037 | 75 | 136 | 4.0 | 10.0 | 0.00 | 0.00 | 0.00 | 46 | 1017.2 |
| 20260503214531 | 76 | 225 | 4.0 | 12.0 | 0.00 | 0.00 | 0.00 | 45 | 1017.3 |
| 20260503213032 | 76 | 181 | 2.0 | 9.0 | 0.00 | 0.00 | 0.00 | 44 | 1017.4 |
| 20260503211625 | 76 | 248 | 3.0 | 9.0 | 0.00 | 0.00 | 0.00 | 41 | 1017.8 |
| 20260503210024 | 75 | 213 | 2.0 | 8.0 | 0.00 | 0.00 | 0.00 | 41 | 1017.9 |
| 20260503204525 | 75 | 235 | 2.0 | 11.0 | 0.00 | 0.00 | 0.00 | 41 | 1018.1 |
| 20260503203021 | 76 | 249 | 3.0 | 9.0 | 0.00 | 0.00 | 0.00 | 39 | 1018.3 |
| 20260503201528 | 76 | 215 | 2.0 | 9.0 | 0.00 | 0.00 | 0.00 | 39 | 1018.5 |
| 20260503200024 | 79 | 244 | 0.0 | 5.0 | 0.00 | 0.00 | 0.00 | 34 | 1018.7 |
| 20260503194520 | 78 | 214 | 0.0 | 1.0 | 0.00 | 0.00 | 0.00 | 34 | 1018.9 |
| 20260503193013 | 75 | 314 | 0.0 | 1.0 | 0.00 | 0.00 | 0.00 | 34 | 1019.2 |
| 20260503191515 | 75 | 24 | 1.0 | 12.0 | 0.00 | 0.00 | 0.00 | 31 | 1019.4 |
| 20260503190019 | 76 | 32 | 0.0 | 7.0 | 0.00 | 0.00 | 0.00 | 33 | 1019.7 |
| 20260503184520 | 75 | 129 | 0.0 | 7.0 | 0.00 | 0.00 | 0.00 | 33 | 1019.9 |
| 20260503183022 | 76 | 44 | 0.0 | 4.0 | 0.00 | 0.00 | 0.00 | 32 | 1020.2 |
| 20260503181521 | 75 | 109 | 0.0 | 6.0 | 0.00 | 0.00 | 0.00 | 33 | 1020.3 |
| 20260503180005 | 73 | 53 | 2.0 | 8.0 | 0.00 | 0.00 | 0.00 | 36 | 1020.4 |
| 20260503174504 | 73 | 53 | 4.0 | 9.0 | 0.00 | 0.00 | 0.00 | 37 | 1020.5 |
| 20260503173009 | 73 | 330 | 2.0 | 7.0 | 0.00 | 0.00 | 0.00 | 36 | 1020.5 |
| 20260503171600 | 73 | 23 | 1.0 | 7.0 | 0.00 | 0.00 | 0.00 | 37 | 1020.7 |
| 20260503170104 | 72 | 90 | 1.0 | 9.0 | 0.00 | 0.00 | 0.00 | 37 | 1020.9 |
| 20260503081527 | 58 | 63 | 0.0 | 0.0 | 0.00 | 0.06 | 0.00 | 64 | 1019.1 |
| 20260503071525 | 59 | 39 | 4.0 | 9.0 | 0.00 | 0.19 | 0.00 | 65 | 1018.6 |
| 20260503054506 | 61 | 52 | 0.0 | 7.0 | 0.00 | 0.49 | 0.00 | 63 | 1018.4 |
| 20260503053006 | 61 | 70 | 1.0 | 7.0 | 0.00 | 0.49 | 0.00 | 62 | 1018.3 |
| 20260503051503 | 61 | 43 | 0.0 | 5.0 | 0.00 | 0.49 | 0.00 | 63 | 1018.2 |
| 20260503050001 | 61 | 335 | 1.0 | 4.0 | 0.00 | 0.49 | 0.00 | 63 | 1018.2 |
| 20260503044625 | 61 | 11 | 1.0 | 6.0 | 0.00 | 0.50 | 0.49 | 62 | 1018.1 |
| 20260503043053 | 61 | 6 | 1.0 | 6.0 | 0.00 | 0.50 | 0.49 | 62 | 1018.0 |
| 20260503041553 | 61 | 35 | 0.0 | 6.0 | 0.00 | 0.50 | 0.49 | 62 | 1017.7 |
| 20260503040043 | 62 | 318 | 1.0 | 5.0 | 0.00 | 0.50 | 0.49 | 61 | 1017.7 |
| 20260503034539 | 62 | 342 | 2.0 | 6.0 | 0.00 | 0.60 | 0.49 | 60 | 1017.6 |
| 20260503033038 | 63 | 314 | 2.0 | 7.0 | 0.00 | 0.60 | 0.49 | 59 | 1017.4 |
| 20260503031529 | 62 | 29 | 0.0 | 6.0 | 0.00 | 0.60 | 0.49 | 60 | 1017.4 |
| 20260503030028 | 63 | 19 | 1.0 | 7.0 | 0.00 | 0.60 | 0.49 | 60 | 1017.2 |
| 20260503024520 | 63 | 321 | 1.0 | 7.0 | 0.00 | 0.78 | 0.49 | 58 | 1017.2 |
| 20260503023016 | 64 | 331 | 3.0 | 9.0 | 0.00 | 0.78 | 0.49 | 58 | 1017.0 |
| 20260503021517 | 65 | 31 | 2.0 | 10.0 | 0.00 | 0.78 | 0.49 | 56 | 1016.9 |
| 20260503020007 | 65 | 58 | 4.0 | 13.0 | 0.00 | 0.78 | 0.49 | 57 | 1016.6 |
| 20260503014504 | 65 | 79 | 3.0 | 10.0 | 0.00 | 1.11 | 0.49 | 56 | 1016.4 |
| 20260503013116 | 65 | 357 | 4.0 | 9.0 | 0.00 | 1.11 | 0.49 | 56 | 1016.2 |
| 20260503011555 | 66 | 33 | 1.0 | 10.0 | 0.00 | 1.11 | 0.49 | 54 | 1016.0 |
| 20260503010049 | 67 | 41 | 5.0 | 12.0 | 0.00 | 1.11 | 0.49 | 51 | 1015.6 |
| 20260503004547 | 67 | 33 | 5.0 | 12.0 | 0.00 | 1.17 | 0.49 | 50 | 1015.3 |
| 20260503003047 | 68 | 37 | 9.0 | 16.0 | 0.00 | 1.17 | 0.49 | 48 | 1014.9 |
| 20260503001537 | 69 | 25 | 9.0 | 15.0 | 0.00 | 1.17 | 0.49 | 47 | 1014.6 |